#timestamp,LO_Frequency,Hit,StdDev 
1549130415.2,286047001.1,P
1549130435.0,286047000.9,N
1549130435.9,286047000.9,N
1549130455.8,286046998.7,N
1549130475.6,286046999.6,N
1549130495.4,286046997.6,N
1549130515.3,286046995.3,Y
1549130535.1,286046997.3,P
1549130555.9,286046997.6,N
1549130575.7,286046995.2,P
1549130595.5,286046995.6,N
1549130615.4,286046996.0,N
1549130635.2,286046994.1,Y
1549130655.0,286046997.7,P
1549130655.9,286046997.7,P
1549130675.8,286046997.6,P
1549130695.6,286046995.6,Y
1549130715.5,286046996.8,P
1549130735.3,286046994.9,P
1549130755.1,286046994.5,P
1549130775.9,286046992.0,Y
1549130795.7,286046996.9,P
1549130815.6,286046998.0,P
1549130835.4,286046995.7,P
1549130855.2,286046996.1,Y
1549130875.1,286046998.1,P
1549130876.0,286046998.1,N
1549130895.8,286047001.2,N
1549130915.6,286046997.0,N
1549130935.5,286046995.0,Y
1549130955.3,286046997.6,P
1549130975.2,286046995.7,P
1549130995.9,286046996.4,P
1549131015.7,286046994.2,Y
1549131035.6,286046994.9,P
1549131055.4,286046996.2,P
1549131075.2,286046996.1,P
1549131095.1,286046993.3,Y
1549131096.0,286046993.3,P
1549131115.8,286046999.1,N
1549131135.7,286046996.6,N
1549131155.5,286046998.8,N
1549131175.3,286046999.1,N
1549131195.2,286046999.6,N
1549131215.0,286046997.2,N
1549131215.9,286046997.2,N
1549131235.8,286046994.9,N
1549131255.6,286046995.0,N
1549131275.4,286046994.9,N
1549131295.3,286046995.3,N
1549131315.1,286046998.0,N
1549131335.8,286046995.9,N
1549131355.7,286046996.0,N
1549131375.5,286046994.2,Y
1549131395.4,286046997.5,P
1549131415.2,286046997.8,P
1549131435.0,286046997.7,P
1549131435.9,286046997.7,Y
1549131455.8,286046998.2,P
1549131475.6,286047000.5,N
1549131495.5,286046999.7,N
1549131515.3,286047000.4,N
1549131535.1,286047000.2,N
1549131555.9,286047000.5,N
1549131575.7,286046998.1,N
1549131595.5,286046998.5,N
1549131615.4,286046998.3,N
1549131635.2,286046998.6,N
1549131655.1,286046998.9,N
1549131656.0,286046998.9,N
1549131675.8,286046998.6,N
1549131695.6,286046998.3,N
1549131715.5,286046998.3,N
1549131735.3,286046999.3,N
1549131755.2,286046997.1,Y
1549131775.9,286046996.8,P
1549131795.7,286046997.4,N
1549131815.6,286046995.0,P
1549131835.4,286046995.7,Y
1549131855.2,286046999.2,P
1549131875.1,286047000.7,N
1549131876.0,286047000.7,N
1549131895.8,286046999.6,N
1549131915.7,286046999.3,N
1549131935.5,286046998.9,N
1549131955.3,286046998.3,N
1549131975.2,286046998.5,N
1549131995.0,286047000.8,N
1549131995.9,286047000.8,N
1549132015.8,286046998.3,N
1549132035.6,286047000.9,N
1549132055.4,286047002.8,N
1549132075.3,286047000.7,N
1549132095.1,286047000.1,N
1549132115.8,286047002.3,N
1549132135.7,286047001.6,N
1549132155.5,286047001.2,N
1549132175.4,286047000.3,N
1549132195.2,286047000.8,N
1549132215.0,286046999.6,N
1549132215.9,286046999.6,N
1549132235.8,286046999.1,N
1549132255.6,286046997.1,N
1549132275.4,286046998.8,N
1549132295.3,286046999.0,N
1549132315.1,286046998.5,N
1549132335.9,286047001.1,N
1549132355.7,286047000.7,N
1549132375.5,286046998.2,N
1549132395.4,286047000.6,N
1549132415.2,286046998.1,N
1549132435.0,286046998.5,N
1549132435.9,286046998.5,N
1549132455.8,286046998.4,N
1549132475.6,286047000.5,N
1549132495.5,286047000.0,N
1549132515.3,286047000.0,N
1549132535.1,286047002.1,N
1549132555.9,286047001.6,N
1549132575.7,286047001.7,N
1549132595.6,286047004.4,Y
1549132615.4,286047001.5,P
1549132635.2,286047002.2,P
1549132655.1,286047002.3,N
1549132656.0,286047002.3,N
1549132675.8,286047002.1,N
1549132695.6,286047000.1,N
1549132715.5,286046999.8,N
1549132735.3,286046999.3,N
1549132755.1,286046996.9,N
1549132775.9,286046998.0,N
1549132795.7,286046998.0,N
1549132815.6,286046997.4,N
1549132835.4,286046997.9,N
1549132855.2,286046995.1,N
1549132875.1,286046996.2,N
1549132876.0,286046996.2,N
1549132895.8,286046996.0,N
1549132915.6,286046995.6,N
1549132935.5,286046996.2,N
1549132955.3,286046996.0,N
1549132975.2,286046996.2,N
1549132995.9,286046994.9,N
1549133015.7,286046997.6,N
1549133035.6,286047011.9,Y
1549133055.4,286046999.4,P
1549133075.3,286046996.7,P
1549133095.1,286046999.5,N
1549133096.0,286046999.5,N
1549133115.8,286046996.5,Y
1549133135.7,286046999.8,P
1549133155.5,286047001.4,N
1549133175.3,286047004.4,P
1549133195.2,286047003.4,N
1549133215.0,286047004.1,N
1549133215.9,286047004.1,N
1549133235.8,286047004.2,N
1549133255.6,286047003.6,N
1549133275.4,286047001.3,N
1549133295.3,286047001.3,N
1549133315.1,286047003.7,N
1549133335.9,286047003.2,N
1549133355.7,286047005.5,Y
1549133375.5,286047002.6,P
1549133395.4,286047000.1,N
1549133415.2,286047000.6,N
1549133435.0,286046999.9,N
1549133435.9,286046999.9,N
1549133455.8,286047000.1,N
1549133475.6,286047002.7,N
1549133495.5,286047002.6,N
1549133515.3,286047002.2,N
1549133535.1,286047002.0,N
1549133555.9,286047002.2,N
1549133575.7,286047002.1,N
1549133595.6,286047001.5,N
1549133615.4,286047001.6,N
1549133635.2,286047002.1,N
1549133655.1,286046999.9,N
1549133656.0,286046999.9,N
1549133675.8,286047002.7,N
1549133695.6,286047002.1,N
1549133715.5,286046999.8,N
1549133735.3,286047002.4,N
1549133755.2,286046999.8,N
1549133775.9,286047002.2,N
1549133795.7,286047001.7,N
1549133815.6,286047002.3,N
1549133835.4,286047002.7,N
1549133855.2,286047000.2,N
1549133875.1,286047001.5,N
1549133876.0,286047001.5,N
1549133895.8,286047004.1,Y
1549133915.7,286047001.8,P
1549133935.5,286047002.2,P
1549133955.3,286047001.6,P
1549133975.2,286047001.6,Y
1549133995.0,286047000.3,P
1549133995.9,286047000.3,N
